Tracking 29933 objects as of 2-Dec-2024
HD Live streaming from Space Station
objects crossing your sky now

STARLINK-31058

Track STARLINK-31058 now!
10-day predictions
STARLINK-31058 is classified as:


NORAD ID: 58677
Int'l Code: 2023-211L
Perigee: 493.7 km
Apogee: 496.8 km
Inclination: 43.0 °
Period: 94.4 minutes
Semi major axis: 6866 km
RCS: Unknown
Launch date: December 29, 2023
Source: United States (US)
Launch site: AIR FORCE EASTERN TEST RANGE (AFETR)
Your satellite tracking list
Your tracking list is empty




NASA's NSSDC Master Catalog

Two Line Element Set (TLE):
1 58677U 23211L   24336.61937360 -.00001207  00000-0 -36292-4 0  9993
2 58677  42.9982 177.9062 0002275 269.1879  90.8712 15.25895704 52852
Source of the keplerian elements: AFSPC